TimeAKST,TemperatureF,Dew PointF,Humidity,Sea Level PressureIn,VisibilityMPH,Wind Direction,Wind SpeedMPH,Gust SpeedMPH,PrecipitationIn,Events,Conditions,WindDirDegrees,DateUTC
12:44 AM,41.0,39.2,93,30.02,10.0,Calm,Calm,-,N/A,,Mostly Cloudy,0,2013-01-18 09:44:00
12:53 AM,39.9,39.0,97,30.03,10.0,Calm,Calm,-,N/A,,Mostly Cloudy,0,2013-01-18 09:53:00
1:17 AM,39.2,37.4,93,30.03,10.0,Calm,Calm,-,N/A,,Scattered Clouds,0,2013-01-18 10:17:00
1:53 AM,39.0,37.0,93,30.05,10.0,Calm,Calm,-,N/A,,Mostly Cloudy,0,2013-01-18 10:53:00
2:22 AM,39.2,37.4,93,30.05,10.0,Calm,Calm,-,N/A,,Overcast,0,2013-01-18 11:22:00
2:29 AM,39.2,37.4,93,30.05,10.0,Calm,Calm,-,N/A,,Overcast,0,2013-01-18 11:29:00
3:44 AM,39.2,37.4,93,30.07,10.0,WNW,3.5,-,N/A,,Mostly Cloudy,300,2013-01-18 12:44:00
3:53 AM,39.0,37.9,96,30.08,10.0,WNW,3.5,-,N/A,,Overcast,300,2013-01-18 12:53:00
4:53 AM,39.0,37.9,96,30.07,10.0,Calm,Calm,-,0.00,,Overcast,0,2013-01-18 13:53:00
5:35 AM,37.4,35.6,93,30.10,8.0,Calm,Calm,-,0.00,Rain,Light Rain,0,2013-01-18 14:35:00
5:42 AM,37.4,37.4,100,30.10,10.0,Calm,Calm,-,0.00,Rain,Light Rain,0,2013-01-18 14:42:00
5:53 AM,37.0,36.0,96,30.11,10.0,Calm,Calm,-,0.00,,Mostly Cloudy,0,2013-01-18 14:53:00
6:08 AM,37.4,35.6,93,30.11,10.0,Calm,Calm,-,N/A,,Scattered Clouds,0,2013-01-18 15:08:00
6:53 AM,34.0,33.1,96,30.14,10.0,Calm,Calm,-,N/A,,Mostly Cloudy,0,2013-01-18 15:53:00
7:53 AM,34.0,34.0,100,30.15,10.0,Calm,Calm,-,N/A,,Partly Cloudy,0,2013-01-18 16:53:00
8:53 AM,35.1,34.0,96,30.18,10.0,Calm,Calm,-,N/A,,Overcast,0,2013-01-18 17:53:00
9:53 AM,39.0,36.0,89,30.22,10.0,Variable,4.6,-,N/A,,Mostly Cloudy,0,2013-01-18 18:53:00
10:53 AM,42.1,36.0,79,30.24,10.0,West,4.6,-,N/A,,Overcast,270,2013-01-18 19:53:00
11:53 AM,42.1,32.0,67,30.24,10.0,NW,4.6,-,N/A,,Partly Cloudy,310,2013-01-18 20:53:00
12:53 PM,41.0,30.0,65,30.25,10.0,Calm,Calm,-,N/A,,Mostly Cloudy,0,2013-01-18 21:53:00
1:53 PM,39.9,32.0,73,30.23,10.0,Calm,Calm,-,N/A,,Overcast,0,2013-01-18 22:53:00
2:53 PM,39.0,33.1,79,30.25,10.0,Calm,Calm,-,N/A,,Overcast,0,2013-01-18 23:53:00
3:53 PM,37.9,34.0,86,30.25,10.0,Calm,Calm,-,N/A,,Overcast,0,2013-01-19 00:53:00
4:53 PM,37.9,34.0,86,30.26,10.0,Calm,Calm,-,N/A,,Overcast,0,2013-01-19 01:53:00
5:53 PM,37.0,34.0,89,30.26,10.0,Calm,Calm,-,N/A,,Overcast,0,2013-01-19 02:53:00
6:53 PM,37.0,34.0,89,30.27,10.0,Calm,Calm,-,N/A,,Overcast,0,2013-01-19 03:53:00
7:53 PM,36.0,34.0,93,30.27,10.0,Calm,Calm,-,N/A,,Overcast,0,2013-01-19 04:53:00
8:53 PM,37.0,34.0,89,30.27,10.0,Calm,Calm,-,N/A,,Overcast,0,2013-01-19 05:53:00
9:53 PM,35.1,33.1,92,30.26,10.0,Calm,Calm,-,N/A,,Overcast,0,2013-01-19 06:53:00
10:53 PM,36.0,34.0,93,30.27,10.0,Calm,Calm,-,N/A,,Overcast,0,2013-01-19 07:53:00
11:53 PM,36.0,34.0,93,30.27,10.0,Calm,Calm,-,N/A,,Overcast,0,2013-01-19 08:53:00